KB1WCR Weather Reports


Display with metric or nautical units.
time (UTC)temp
F
wind
direction
speed
MPH
gust
MPH
rain 1hr
in
rain 24hr
in
rain mn
in
humidity
%
barometer
mb
20260903222427 66 310 0.0 0.0 0.00 0.07 0.07 97 1012.3
20260903221921 66 314 0.0 0.0 0.00 0.07 0.07 97 1012.6
20260903221420 66 308 0.0 0.0 0.00 0.07 0.07 97 1012.6
20260903220918 66 308 0.0 0.0 0.00 0.07 0.07 96 1012.5
20260903220412 66 300 0.0 0.0 0.00 0.07 0.07 97 1012.5
20260903215909 66 304 0.0 0.0 0.00 0.07 0.07 97 1012.4
20260903215407 66 308 0.0 0.0 0.00 0.07 0.07 97 1012.5
20260903214905 66 298 0.0 0.0 0.00 0.07 0.07 98 1012.5
20260903214401 66 310 0.0 0.0 0.00 0.07 0.07 96 1012.5
20260903213901 66 301 0.0 0.0 0.00 0.07 0.07 96 1012.3
20260903213356 66 314 0.0 0.0 0.00 0.07 0.07 96 1012.5
20260903212852 66 289 0.0 0.0 0.00 0.07 0.07 96 1012.4
20260903212348 66 302 0.0 0.0 0.00 0.07 0.07 96 1012.6
20260903211847 66 298 0.0 0.0 0.00 0.07 0.07 96 1012.5
20260903211343 66 299 0.0 0.0 0.00 0.07 0.07 96 1012.5
20260903210839 66 294 0.0 0.0 0.00 0.07 0.07 96 1012.6
20260903210333 66 288 0.0 0.0 0.00 0.07 0.07 97 1012.6
20260903205833 66 292 0.0 0.0 0.00 0.07 0.07 97 1012.6
20260903205333 66 304 0.0 0.0 0.00 0.07 0.07 97 1012.4
20260903204828 66 286 0.0 0.0 0.00 0.07 0.07 98 1012.7
20260903204324 66 319 0.0 0.0 0.00 0.07 0.07 97 1012.6
20260903203819 66 91 0.0 1.0 0.00 0.07 0.07 97 1012.7
20260903203315 66 295 0.0 0.0 0.00 0.07 0.07 98 1012.6
20260903202814 66 313 0.0 0.0 0.00 0.07 0.07 98 1012.8
20260903202311 66 332 0.0 0.0 0.00 0.07 0.07 98 1012.6
20260903201810 65 301 0.0 0.0 0.00 0.07 0.07 98 1012.7
20260903201305 66 272 0.0 1.0 0.00 0.07 0.07 98 1012.7
20260903200804 66 88 1.0 2.0 0.00 0.07 0.07 97 1012.7
20260903200259 66 291 0.0 0.0 0.00 0.07 0.07 98 1012.7
20260903195754 66 279 0.0 0.0 0.00 0.07 0.07 97 1012.7
20260903195250 66 268 0.0 0.0 0.00 0.07 0.07 98 1012.9
20260903194745 66 344 0.0 0.0 0.00 0.07 0.07 97 1013.2
20260903194241 66 204 1.0 1.0 0.00 0.07 0.07 97 1012.9
20260903193736 66 268 1.0 1.0 0.00 0.07 0.07 97 1012.8
20260903193232 66 21 1.0 1.0 0.00 0.07 0.07 96 1013.2
20260903192728 67 306 0.0 0.0 0.00 0.07 0.07 97 1013.2
20260903192223 66 315 0.0 0.0 0.00 0.07 0.07 97 1013.3
20260903191719 66 330 0.0 0.0 0.00 0.07 0.07 97 1013.2
20260903191214 66 307 0.0 0.0 0.00 0.07 0.07 98 1013.2
20260903190703 65 317 0.0 0.0 0.00 0.07 0.07 98 1013.3
20260903190203 65 359 0.0 0.0 0.00 0.07 0.07 99 1013.4
20260903185658 65 313 0.0 0.0 0.00 0.07 0.07 99 1013.6
20260903185153 65 335 1.0 1.0 0.00 0.07 0.07 99 1013.5
20260903184649 65 44 1.0 2.0 0.00 0.07 0.07 99 1013.5
20260903184145 65 257 1.0 1.0 0.00 0.07 0.07 99 1013.6
20260903183644 65 16 2.0 2.0 0.00 0.07 0.07 99 1013.8
20260903183139 64 340 0.0 0.0 0.00 0.07 0.07 99 1013.9
20260903182638 64 311 0.0 0.0 0.00 0.07 0.07 99 1013.9
20260903182134 64 194 0.0 0.0 0.00 0.07 0.07 99 1013.8
20260903181632 64 284 1.0 2.0 0.00 0.07 0.07 99 1014.0
20260903181127 64 311 0.0 1.0 0.00 0.07 0.07 99 1013.8
20260903180622 64 291 0.0 0.0 0.00 0.07 0.07 99 1014.0
20260903180117 64 290 1.0 1.0 0.00 0.07 0.07 99 1014.0
20260903175616 64 18 2.0 2.0 0.00 0.07 0.07 99 1014.0
20260903175115 64 16 1.0 2.0 0.00 0.07 0.07 99 1013.9
20260903174610 64 64 2.0 3.0 0.00 0.07 0.07 99 1013.7
20260903174105 64 323 0.0 0.0 0.00 0.07 0.07 99 1013.9
20260903173559 63 58 2.0 3.0 0.00 0.07 0.07 99 1013.9
20260903173056 64 188 1.0 2.0 0.00 0.07 0.07 99 1013.9
20260903172550 63 170 1.0 1.0 0.00 0.07 0.07 99 1013.8
20260903172046 64 48 1.0 1.0 0.00 0.07 0.07 99 1013.7
20260903171540 64 325 1.0 1.0 0.00 0.07 0.07 99 1013.8
20260903171036 64 7 0.0 1.0 0.00 0.07 0.07 99 1014.0
20260903170534 64 132 1.0 2.0 0.00 0.07 0.07 99 1014.0
20260903170030 63 272 1.0 1.0 0.00 0.07 0.07 99 1014.0
20260903165527 63 357 2.0 2.0 0.00 0.07 0.07 99 1014.0
20260903165023 63 49 1.0 1.0 0.00 0.07 0.07 99 1014.0
20260903164518 63 35 1.0 1.0 0.00 0.07 0.07 99 1014.1
20260903164014 63 26 0.0 0.0 0.00 0.07 0.07 99 1014.2
20260903163509 63 330 1.0 1.0 0.00 0.07 0.07 99 1014.1
20260903163005 63 36 2.0 2.0 0.00 0.07 0.07 99 1014.3
20260903162501 63 51 1.0 2.0 0.00 0.07 0.07 99 1014.4
20260903161956 63 227 1.0 1.0 0.00 0.07 0.07 99 1014.5
20260903161451 62 7 0.0 1.0 0.00 0.07 0.07 99 1014.7
20260903160948 63 2 1.0 1.0 0.00 0.07 0.07 99 1014.6
20260903160446 63 202 2.0 3.0 0.00 0.07 0.07 99 1014.8
20260903155945 62 275 1.0 1.0 0.00 0.07 0.07 99 1014.7
20260903155440 63 155 2.0 3.0 0.00 0.07 0.07 99 1014.6
20260903154935 63 27 1.0 1.0 0.00 0.07 0.07 99 1014.6
20260903154426 63 353 0.0 0.0 0.00 0.07 0.07 99 1015.0
20260903153921 63 151 0.0 1.0 0.00 0.07 0.07 99 1014.9
20260903153416 63 207 1.0 2.0 0.00 0.07 0.07 99 1015.0
20260903152913 63 321 1.0 2.0 0.00 0.07 0.07 99 1015.0
20260903152408 63 266 0.0 0.0 0.00 0.07 0.07 99 1015.2
20260903151903 63 56 1.0 1.0 0.00 0.07 0.07 99 1015.3
20260903151358 63 318 1.0 1.0 0.00 0.07 0.07 99 1015.3
20260903150852 63 39 2.0 2.0 0.00 0.07 0.07 99 1015.4
20260903150346 63 201 2.0 2.0 0.00 0.07 0.07 99 1015.3
20260903145841 62 318 1.0 2.0 0.00 0.07 0.07 99 1015.6
20260903145337 63 29 0.0 1.0 0.00 0.07 0.07 99 1015.4
20260903144836 62 299 0.0 0.0 0.00 0.07 0.07 99 1015.3
20260903144331 62 18 1.0 1.0 0.00 0.07 0.07 99 1015.4
20260903143826 62 143 0.0 0.0 0.00 0.07 0.07 99 1015.4
20260903143323 62 90 1.0 2.0 0.00 0.07 0.07 99 1015.5
20260903142819 62 177 1.0 2.0 0.00 0.07 0.07 99 1015.6
20260903142315 62 306 0.0 0.0 0.00 0.07 0.07 99 1015.6
20260903141810 62 67 1.0 1.0 0.00 0.07 0.07 99 1015.8
20260903141306 62 73 1.0 1.0 0.00 0.07 0.07 99 1015.6
20260903140806 62 304 0.0 0.0 0.00 0.07 0.07 99 1015.7
20260903140300 61 9 1.0 1.0 0.00 0.07 0.07 99 1015.7
20260903135756 61 319 0.0 1.0 0.00 0.07 0.07 99 1016.0
20260903135252 61 23 2.0 2.0 0.00 0.07 0.07 99 1015.8
20260903134750 61 322 0.0 0.0 0.00 0.07 0.07 99 1015.7
20260903134246 61 295 0.0 0.0 0.00 0.07 0.07 99 1015.9
20260903133743 61 23 2.0 2.0 0.00 0.07 0.07 99 1015.8
20260903133240 61 281 1.0 2.0 0.00 0.07 0.07 99 1015.8
20260903132740 61 32 1.0 1.0 0.00 0.07 0.07 99 1015.9
20260903132235 61 325 0.0 0.0 0.00 0.07 0.07 99 1015.8
20260903131730 61 340 0.0 0.0 0.00 0.07 0.07 99 1016.0
20260903131225 61 41 2.0 2.0 0.00 0.07 0.07 99 1015.9
20260903130725 61 252 1.0 2.0 0.00 0.07 0.07 99 1016.0
20260903130221 61 334 0.0 0.0 0.00 0.07 0.07 99 1015.8
20260903125718 61 236 1.0 1.0 0.00 0.07 0.07 99 1016.1
20260903125214 61 304 1.0 1.0 0.00 0.07 0.07 99 1016.2
20260903124713 61 14 2.0 2.0 0.00 0.07 0.07 99 1016.0
20260903124208 61 274 0.0 1.0 0.00 0.07 0.07 99 1016.2
20260903123707 61 326 0.0 0.0 0.05 0.07 0.07 99 1016.1
20260903123206 61 312 0.0 0.0 0.05 0.07 0.07 99 1016.2
20260903122700 61 305 1.0 1.0 0.00 0.06 0.06 99 1016.1
20260903122154 60 301 0.0 0.0 0.00 0.06 0.06 99 1016.5
20260903121654 60 339 0.0 0.0 0.00 0.06 0.06 99 1016.4
20260903121150 60 321 0.0 1.0 0.07 0.06 0.06 99 1016.5
20260903120649 60 321 0.0 0.0 0.12 0.06 0.06 99 1016.6
20260903120143 60 305 0.0 0.0 0.05 0.05 0.05 99 1016.7
20260903115641 60 306 0.0 0.0 0.00 0.04 0.04 99 1016.9
20260903115137 60 306 0.0 0.0 0.00 0.04 0.04 99 1016.9
20260903114632 60 298 0.0 0.0 0.00 0.04 0.04 99 1016.8
20260903114127 60 312 0.0 0.0 0.00 0.04 0.04 99 1016.7
20260903113623 60 321 0.0 0.0 0.00 0.04 0.04 99 1016.8
20260903113119 60 310 0.0 0.0 0.00 0.04 0.04 99 1016.6
20260903112615 60 308 0.0 0.0 0.00 0.04 0.04 99 1016.5
20260903112114 60 305 0.0 0.0 0.00 0.04 0.04 99 1016.4
20260903111614 60 317 0.0 0.0 0.00 0.04 0.04 99 1016.5
20260903111109 60 305 0.0 0.0 0.00 0.04 0.04 99 1016.4
20260903110605 60 324 0.0 0.0 0.00 0.04 0.04 99 1016.5
20260903110100 60 302 0.0 0.0 0.00 0.04 0.04 99 1016.3
20260903105555 60 309 0.0 0.0 0.00 0.04 0.04 99 1016.3
20260903105049 60 310 0.0 0.0 0.00 0.04 0.04 99 1016.4
20260903104544 60 310 0.0 0.0 0.00 0.04 0.04 99 1016.4
20260903104040 60 321 0.0 0.0 0.00 0.04 0.04 99 1016.6
20260903103535 60 323 0.0 0.0 0.00 0.04 0.04 99 1016.5
20260903103032 60 326 0.0 0.0 0.00 0.04 0.04 99 1016.5
20260903102527 60 306 0.0 0.0 0.00 0.04 0.04 99 1016.8
20260903102026 60 305 0.0 0.0 0.00 0.04 0.04 99 1016.8
20260903101520 60 283 0.0 0.0 0.00 0.04 0.04 99 1016.8
20260903101016 61 287 0.0 0.0 0.07 0.04 0.04 99 1016.9
20260903100510 61 308 0.0 0.0 0.07 0.04 0.04 99 1016.9
20260903100009 61 307 0.0 0.0 0.00 0.03 0.03 99 1016.7
20260903095502 61 296 0.0 0.0 0.00 0.03 0.03 99 1016.7
20260903094957 61 309 0.0 0.0 0.00 0.03 0.03 99 1016.7
20260903094457 61 292 0.0 0.0 0.00 0.03 0.03 99 1016.8
20260903093953 61 306 0.0 0.0 0.00 0.03 0.03 99 1016.6
20260903093448 61 333 0.0 0.0 0.00 0.03 0.03 99 1016.8
20260903092943 61 301 0.0 0.0 0.00 0.03 0.03 99 1016.9
20260903092437 61 317 0.0 0.0 0.00 0.03 0.03 99 1017.1
20260903091937 61 345 0.0 0.0 0.05 0.03 0.03 99 1017.3
20260903091435 61 330 0.0 0.0 0.12 0.03 0.03 99 1017.1
20260903090930 61 304 0.0 0.0 0.07 0.02 0.02 99 1017.2
20260903090426 61 307 0.0 0.0 0.07 0.02 0.02 99 1017.4
20260903085924 61 309 0.0 0.0 0.05 0.01 0.01 99 1017.3
20260903085423 61 298 0.0 0.0 0.00 0.00 0.00 99 1017.4
20260903084923 61 313 0.0 0.0 0.00 0.00 0.00 99 1017.3
20260903084421 61 300 0.0 0.0 0.00 0.00 0.00 99 1017.5
20260903083916 61 307 0.0 0.0 0.00 0.00 0.00 99 1017.4
20260903083413 61 306 0.0 0.0 0.00 0.00 0.00 99 1017.2
20260903082911 61 301 0.0 0.0 0.00 0.00 0.00 99 1017.2
20260903082407 61 313 0.0 0.0 0.00 0.00 0.00 99 1017.1
20260903081902 61 310 0.0 0.0 0.00 0.00 0.00 99 1017.0
20260903081357 61 308 0.0 0.0 0.00 0.00 0.00 99 1016.9
20260903080853 61 301 0.0 0.0 0.00 0.00 0.00 99 1017.0
20260903080350 61 312 0.0 0.0 0.00 0.00 0.00 99 1016.9
20260903075849 61 306 0.0 0.0 0.00 0.00 0.00 99 1017.1
20260903075345 61 312 0.0 0.0 0.00 0.00 0.00 99 1017.0
20260903074839 61 315 0.0 0.0 0.00 0.00 0.00 99 1017.2
20260903074333 61 312 0.0 0.0 0.00 0.00 0.00 99 1017.3
20260903073829 61 310 0.0 0.0 0.00 0.00 0.00 99 1017.4
20260903073324 61 305 0.0 0.0 0.00 0.00 0.00 99 1017.3
20260903072820 61 328 0.0 0.0 0.00 0.00 0.00 99 1017.3
20260903072316 61 7 1.0 2.0 0.00 0.00 0.00 99 1017.3
20260903071812 61 307 0.0 0.0 0.00 0.00 0.00 99 1017.4
20260903071308 61 313 0.0 0.0 0.00 0.00 0.00 99 1017.5
20260903070802 61 8 0.0 1.0 0.00 0.00 0.00 99 1017.7
20260903070258 61 6 0.0 1.0 0.00 0.00 0.00 99 1017.7
20260903065753 61 311 0.0 0.0 0.00 0.00 0.00 99 1018.0
20260903065252 61 324 0.0 0.0 0.00 0.00 0.00 99 1018.1
20260903064751 61 311 0.0 0.0 0.00 0.00 0.00 99 1018.3
20260903064247 61 342 0.0 0.0 0.00 0.00 0.00 99 1018.4
20260903063743 61 317 0.0 0.0 0.00 0.00 0.00 99 1018.4
20260903063237 61 299 0.0 0.0 0.00 0.00 0.00 99 1018.6
20260903062733 61 297 0.0 0.0 0.00 0.00 0.00 99 1018.5
20260903062227 61 296 0.0 0.0 0.00 0.00 0.00 99 1018.7
20260903061724 61 313 0.0 0.0 0.00 0.00 0.00 99 1018.6
20260903061222 61 318 0.0 0.0 0.00 0.00 0.00 99 1018.8
20260903060717 61 306 0.0 0.0 0.00 0.00 0.00 99 1018.8
20260903060212 61 308 0.0 0.0 0.00 0.00 0.00 99 1018.8
20260903055709 61 327 0.0 0.0 0.00 0.00 0.00 99 1018.9
20260903055208 60 303 0.0 0.0 0.00 0.00 0.00 99 1019.2
20260903054703 60 308 0.0 0.0 0.00 0.00 0.00 99 1019.2
20260903054159 60 302 0.0 0.0 0.00 0.00 0.00 99 1019.1
20260903053655 60 314 0.0 0.0 0.00 0.00 0.00 99 1019.1
20260903053150 60 300 0.0 0.0 0.00 0.00 0.00 99 1019.2
20260903052646 60 306 0.0 0.0 0.00 0.00 0.00 99 1019.0
20260903052141 60 315 0.0 0.0 0.00 0.00 0.00 99 1019.3
20260903051636 60 314 0.0 0.0 0.00 0.00 0.00 99 1019.3
20260903051131 60 310 0.0 0.0 0.00 0.00 0.00 99 1019.2
20260903050626 60 314 0.0 0.0 0.00 0.00 0.00 99 1019.3
20260903050121 60 310 0.0 0.0 0.00 0.00 0.00 99 1019.2
20260903045620 60 304 0.0 0.0 0.00 0.00 0.00 99 1019.4
20260903045117 60 314 0.0 0.0 0.00 0.00 0.00 99 1019.4
20260903044612 60 318 0.0 0.0 0.00 0.00 0.00 99 1019.4
20260903044108 60 301 0.0 0.0 0.00 0.00 0.00 99 1019.4
20260903043604 60 300 0.0 0.0 0.00 0.00 0.00 99 1019.5
20260903043103 60 300 0.0 0.0 0.00 0.00 0.00 99 1019.5
20260903042558 60 349 0.0 1.0 0.00 0.00 0.00 99 1019.5
20260903042053 60 313 0.0 0.0 0.00 0.00 0.00 99 1019.6
20260903041550 60 316 0.0 0.0 0.00 0.00 0.00 99 1019.9
20260903041045 60 316 0.0 0.0 0.00 0.00 0.00 99 1020.0
20260903040543 60 312 0.0 0.0 0.00 0.00 0.00 99 1020.1
20260903040040 60 304 0.0 0.0 0.00 0.00 0.00 99 1020.1
20260903035535 60 305 0.0 0.0 0.00 0.00 0.00 99 1020.2
20260903035031 60 299 0.0 0.0 0.00 0.00 0.00 99 1020.2
20260903034526 60 310 0.0 0.0 0.00 0.00 0.00 99 1020.2
20260903034021 60 321 0.0 0.0 0.00 0.00 0.00 99 1020.2
20260903033515 60 304 0.0 0.0 0.00 0.00 0.00 99 1020.3
20260903033011 60 304 0.0 0.0 0.00 0.00 0.00 99 1020.6
20260903032506 60 307 0.0 0.0 0.00 0.00 0.00 99 1020.3
20260903032000 60 306 0.0 0.0 0.00 0.00 0.00 99 1020.3
20260903031455 60 307 0.0 0.0 0.00 0.00 0.00 99 1020.4
20260903030950 60 320 0.0 0.0 0.00 0.00 0.00 99 1020.4
20260903030446 60 302 0.0 0.0 0.00 0.00 0.00 99 1020.7
20260903025941 60 309 0.0 0.0 0.00 0.00 0.00 99 1020.4
20260903025431 60 300 0.0 0.0 0.00 0.00 0.00 99 1020.4
20260903024926 60 342 0.0 0.0 0.00 0.00 0.00 99 1020.2
20260903024420 60 312 0.0 0.0 0.00 0.00 0.00 99 1020.4
20260903023915 60 312 0.0 0.0 0.00 0.00 0.00 99 1020.5
20260903023411 60 343 0.0 0.0 0.00 0.00 0.00 99 1020.6
20260903022907 60 327 0.0 0.0 0.00 0.00 0.00 99 1020.7
20260903022405 60 311 0.0 0.0 0.00 0.00 0.00 99 1020.7
20260903021904 60 310 0.0 0.0 0.00 0.00 0.00 99 1020.7
20260903021359 60 306 0.0 0.0 0.00 0.00 0.00 99 1020.9
20260903020859 60 341 0.0 0.0 0.00 0.00 0.00 99 1020.8
20260903020355 60 296 0.0 0.0 0.00 0.00 0.00 99 1020.9
20260903015849 60 305 0.0 0.0 0.00 0.00 0.00 99 1021.0
20260903015344 60 302 0.0 0.0 0.00 0.00 0.00 99 1020.8
20260903014839 60 288 0.0 0.0 0.00 0.00 0.00 99 1020.8
20260903014334 60 50 0.0 0.0 0.00 0.00 0.00 99 1020.8
20260903013829 60 299 0.0 0.0 0.00 0.00 0.00 99 1020.8
20260903013328 60 283 0.0 0.0 0.00 0.00 0.00 99 1020.8
20260903012828 60 303 0.0 0.0 0.00 0.00 0.00 99 1020.9
20260903012321 60 302 0.0 0.0 0.00 0.00 0.00 99 1020.9
20260903011820 60 281 0.0 0.0 0.00 0.00 0.00 99 1020.8
20260903011315 60 333 0.0 0.0 0.00 0.00 0.00 99 1020.8
20260903010810 59 306 0.0 0.0 0.00 0.00 0.00 99 1020.9
20260903010306 59 75 1.0 2.0 0.00 0.00 0.00 99 1020.8
20260903005804 59 309 0.0 0.0 0.00 0.00 0.00 99 1020.7
20260903005259 59 276 0.0 0.0 0.00 0.00 0.00 99 1020.6
20260903004755 59 17 1.0 1.0 0.00 0.00 0.00 99 1020.5
20260903004250 59 303 0.0 1.0 0.00 0.00 0.00 99 1020.5
20260903003746 60 311 0.0 0.0 0.00 0.00 0.00 99 1020.5
20260903003240 60 301 0.0 0.0 0.00 0.00 0.00 99 1020.6
20260903002735 60 333 0.0 0.0 0.00 0.00 0.00 99 1020.7
20260903002229 60 336 0.0 0.0 0.00 0.00 0.00 99 1020.6
20260903001725 60 342 0.0 0.0 0.00 0.00 0.00 99 1020.6
20260903001225 60 287 0.0 0.0 0.00 0.00 0.00 99 1020.5
20260903000720 60 303 0.0 0.0 0.00 0.00 0.00 99 1020.6
20260903000219 60 240 1.0 1.0 0.00 0.00 0.00 99 1020.8
20260902235718 60 315 0.0 0.0 0.00 0.00 0.00 98 1020.9
20260902235214 60 280 0.0 0.0 0.00 0.00 0.00 98 1021.0
20260902234713 60 2 1.0 1.0 0.00 0.00 0.00 98 1021.0
20260902234212 60 323 1.0 1.0 0.00 0.00 0.00 97 1020.9
20260902233706 61 311 0.0 0.0 0.00 0.00 0.00 97 1021.1
20260902233201 61 287 0.0 0.0 0.00 0.00 0.00 97 1021.3
20260902232700 61 315 0.0 0.0 0.00 0.00 0.00 97 1021.3
20260902232159 61 339 0.0 0.0 0.00 0.00 0.00 96 1021.4
20260902231653 61 324 0.0 0.0 0.00 0.00 0.00 96 1021.4
20260902231148 61 290 0.0 0.0 0.00 0.00 0.00 96 1021.5
20260902230644 61 315 0.0 0.0 0.00 0.00 0.00 95 1021.5
20260902230143 62 304 0.0 0.0 0.00 0.00 0.00 95 1021.5
20260902225638 62 331 0.0 0.0 0.00 0.00 0.00 94 1021.4
20260902225137 62 317 0.0 0.0 0.00 0.00 0.00 94 1021.4
20260902224636 62 330 0.0 0.0 0.00 0.00 0.00 94 1021.4
20260902224132 62 350 0.0 0.0 0.00 0.00 0.00 93 1021.7
20260902223628 62 3 1.0 2.0 0.00 0.00 0.00 93 1021.7
20260902223127 63 356 1.0 1.0 0.00 0.00 0.00 92 1021.8
20260902222626 63 303 0.0 0.0 0.00 0.00 0.00 92 1022.0